Home   Weather   Lethbridge   Past weeks

Flag for Canada Past Weather in Lethbridge, Alberta, Canada — Yesterday and Last 2 Weeks

57 °F

Partly sunny.

Feels Like: 53 °F
Forecast: 32 / 46 °F
Wind: 23 mph from West

Location: Lethbridge

Current Time: Oct 27, 2016 at 6:58:36 PM

Latest Report: Oct 27, 2016 at 6:00 PM

Visibility: 30 mi

Pressure: 29.74 "Hg (26.81 "Hg at 872m altitude)

Humidity: 44%

Dew Point: 36 °F

Location of LethbridgeLocation

Past Weather in Lethbridge — Graph


Lethbridge Temperature Yesterday

Maximum temperature yesterday: 55 °F (at 12:00 PM)
Minimum temperature yesterday: 41 °F (at 8:00 AM)
Average temperature yesterday: 48 °F

High & Low Weather Summary for the Past Weeks

High63 °F (Oct 25, 3:00 PM)100% (Oct 17, 10:59 PM)30.34 "Hg (Oct 17, 10:59 PM)
Low23 °F (Oct 23, 7:00 AM)31% (Oct 16, 1:00 PM)29.28 "Hg (Oct 14, 10:00 AM)
Average43 °F70%29.86 "Hg
* Reported Oct 12 5:00 PM — Oct 27 5:00 PM, Lethbridge, Weather by CustomWeather, © 2016

Note: Actual official high and low records may vary slightly from our data, if they occured in-between our weather recording intervals... More about our weather records


Lethbridge Weather History for the Previous 24 Hours

Scroll right to see more
Time TempWeatherWind HumidityBarometerVisibility
5:00 PM
Thu, Oct 27
59 °FBroken clouds.25 mph45%29.71 "Hg40 mi
4:00 PM59 °FMostly cloudy.23 mph45%29.71 "Hg40 mi
3:00 PM61 °FMore clouds than sun.21 mph42%29.73 "Hg40 mi
2:00 PM63 °FMore clouds than sun.26 mph42%29.72 "Hg40 mi
1:00 PM63 °FBroken clouds.10 mph45%29.73 "Hg40 mi
12:00 PM59 °FMore clouds than sun.No wind55%29.76 "Hg40 mi
11:00 AM57 °FMore clouds than sun.9 mph59%29.76 "Hg40 mi
10:00 AM54 °FPartly sunny.12 mph63%29.76 "Hg40 mi
9:00 AM45 °FMore clouds than sun.5 mph76%29.77 "Hg30 mi
8:07 AM46 °FPassing clouds.10 mph76%29.76 "Hg40 mi
7:00 AM45 °FPassing clouds.12 mph81%29.78 "Hg40 mi
6:00 AM43 °FPassing clouds.12 mph87%29.80 "Hg40 mi
5:00 AM45 °FPassing clouds.9 mph81%29.82 "Hg9 mi
4:00 AM46 °FMostly cloudy.8 mph82%29.84 "Hg9 mi
3:00 AM45 °FOvercast.8 mph81%29.84 "Hg9 mi
2:00 AM45 °FOvercast.9 mph87%29.86 "Hg9 mi
1:00 AM46 °FPassing clouds.5 mph82%29.87 "Hg9 mi
12:00 AM41 °FPassing clouds.6 mph93%29.90 "Hg9 mi
11:00 PM
Wed, Oct 26
41 °FPartly cloudy.5 mph100%29.92 "Hg9 mi
10:00 PM43 °FOvercast.3 mph87%29.94 "Hg25 mi
9:00 PM45 °FOvercast.7 mph81%29.96 "Hg25 mi
8:00 PM48 °FOvercast.3 mph76%29.98 "Hg25 mi
7:00 PM48 °FMostly cloudy.5 mph82%30.00 "Hg25 mi
6:00 PM50 °FMostly cloudy.3 mph76%30.01 "Hg30 mi
Weather by CustomWeather, © 2016

See weather overviewHow to use our weather pages